Weather History for Jackson, WY

Change the Weather History Date:

Sunday, October 6, 2013

  Actual Average Record
Temperature  
Mean Temperature 42 °F -  
Max Temperature 60 °F 60 °F 75 °F (1980)
Min Temperature 23 °F 24 °F 12 °F (2000)
Degree Days  
Heating Degree Days 24    
Moisture  
Dew Point 28 °F    
Average Humidity 84    
Maximum Humidity 100    
Minimum Humidity 27    
Precipitation  
Precipitation 0.00 in - - ()
Sea Level Pressure  
Sea Level Pressure 30.42 in    
Wind  
Wind Speed 4 mph (North)    
Max Wind Speed 8 mph    
Max Gust Speed -    
Visibility 10 miles    
Events      
Averages and records for this station are not official NWS values.
T = Trace of Precipitation, MM = Missing Value Source: NWS Daily Summary

Daily Weather History Graph

Daily Weather History Graph

Search for Another Location

Airport:

Trip Planner

Search our weather history database for the weather conditions in past years. The results will help you decide how hot, cold, wet, or windy it might be!

Date:

Astronomy

Oct. 06, 2013 Rise Set
Actual Time 7:26 AM MDT 6:54 PM MDT
Civil Twilight 6:58 AM MDT 7:23 PM MDT
Nautical Twilight 6:24 AM MDT 7:56 PM MDT
Astronomical Twilight 5:51 AM MDT 8:29 PM MDT
Moon 9:19 AM MDT (10/6) 7:51 PM MDT (10/6)
Length of Visible Light 12h 25m
Length of Day
11h 27m
Waxing Crescent, 4% of the Moon is Illuminated
Oct 6
Waxing Crescent
Oct 11
First Quarter
Oct 18
Full
Oct 26
Last Quarter
Nov 3
New

Hourly Weather History & Observations

Time (MDT) Temp. Windchill Dew Point Humidity Pressure Visibility Wind Dir Wind Speed Gust Speed Precip Events Conditions
12:15 AM 28.4 °F 24.6 °F 28.4 °F 100% 30.48 in 10.0 mi North 3.5 mph - N/A   Clear
12:35 AM 28.4 °F 24.6 °F 28.4 °F 100% 30.48 in 10.0 mi NNE 3.5 mph - N/A   Clear
12:55 AM 28.4 °F 23.3 °F 28.4 °F 100% 30.48 in 10.0 mi North 4.6 mph - N/A   Clear
1:15 AM 26.6 °F 21.2 °F 26.6 °F 100% 30.48 in 10.0 mi North 4.6 mph - N/A   Clear
1:35 AM 26.6 °F 22.6 °F 24.8 °F 93% 30.49 in 10.0 mi NNE 3.5 mph - N/A   Clear
1:55 AM 26.6 °F 21.2 °F 26.6 °F 100% 30.49 in 10.0 mi East 4.6 mph - N/A   Clear
2:15 AM 26.6 °F - 24.8 °F 93% 30.49 in 10.0 mi Calm Calm - N/A   Clear
2:35 AM 26.6 °F 22.6 °F 24.8 °F 93% 30.49 in 10.0 mi North 3.5 mph - N/A   Clear
2:55 AM 24.8 °F 20.5 °F 24.8 °F 100% 30.48 in 10.0 mi NNW 3.5 mph - N/A   Clear
3:15 AM 24.8 °F 16.1 °F 24.8 °F 100% 30.48 in 10.0 mi North 8.1 mph - N/A   Clear
3:35 AM 24.8 °F 16.1 °F 23.0 °F 93% 30.48 in 10.0 mi North 8.1 mph - N/A   Clear
3:55 AM 24.8 °F 17.9 °F 24.8 °F 100% 30.48 in 10.0 mi North 5.8 mph - N/A   Clear
4:15 AM 26.6 °F 20.0 °F 26.6 °F 100% 30.47 in 10.0 mi North 5.8 mph - N/A   Clear
4:35 AM 26.6 °F - 24.8 °F 93% 30.47 in 10.0 mi Calm Calm - N/A   Clear
4:55 AM 26.6 °F 22.6 °F 26.6 °F 100% 30.47 in 10.0 mi NE 3.5 mph - N/A   Clear
5:15 AM 24.8 °F 20.5 °F 24.8 °F 100% 30.47 in 10.0 mi NNE 3.5 mph - N/A   Clear
5:35 AM 24.8 °F 16.9 °F 23.0 °F 93% 30.47 in 10.0 mi North 6.9 mph - N/A   Clear
5:55 AM 24.8 °F 16.9 °F 24.8 °F 100% 30.47 in 10.0 mi North 6.9 mph - N/A   Clear
6:15 AM 24.8 °F 17.9 °F 24.8 °F 100% 30.47 in 10.0 mi North 5.8 mph - N/A   Clear
6:35 AM 24.8 °F 20.5 °F 24.8 °F 100% 30.47 in 10.0 mi North 3.5 mph - N/A   Clear
6:51 AM 24.8 °F - 24.8 °F 100% 30.47 in 10.0 mi Calm Calm - N/A   Clear
7:51 AM 23.0 °F - 23.0 °F 100% 30.48 in 10.0 mi Calm Calm - N/A   Clear
8:52 AM 28.4 °F - 26.6 °F 93% 30.48 in 10.0 mi Calm Calm - N/A   Clear
9:51 AM 33.8 °F - 28.4 °F 81% 30.47 in 10.0 mi Calm Calm - N/A   Clear
10:55 AM 39.2 °F - 30.2 °F 70% 30.46 in 10.0 mi Calm Calm - N/A   Clear
11:53 AM 44.6 °F 43.1 °F 30.2 °F 57% 30.44 in 10.0 mi SSE 3.5 mph - N/A   Clear
12:54 PM 46.4 °F 42.9 °F 28.4 °F 50% 30.42 in 10.0 mi South 6.9 mph - N/A   Clear
1:51 PM 50.0 °F - 30.2 °F 47% 30.38 in 10.0 mi SW 3.5 mph - N/A   Clear
2:59 PM 53.6 °F - 32.0 °F 44% 30.36 in 10.0 mi Calm Calm - N/A   Clear
3:51 PM 57.2 °F - 30.2 °F 36% 30.34 in 10.0 mi SW 3.5 mph - N/A   Clear
4:55 PM 60.8 °F - 28.4 °F 29% 30.33 in 10.0 mi SSW 6.9 mph - N/A   Clear
5:55 PM 60.8 °F - 26.6 °F 27% 30.33 in 10.0 mi South 6.9 mph - N/A   Clear
6:59 PM 48.2 °F - 33.8 °F 58% 30.33 in 10.0 mi North 4.6 mph - N/A   Clear
7:56 PM 42.8 °F 38.6 °F 33.8 °F 70% 30.33 in 10.0 mi NW 6.9 mph - N/A   Clear
8:55 PM 37.4 °F 32.8 °F 33.8 °F 87% 30.33 in 10.0 mi North 5.8 mph - N/A   Clear
9:15 PM 35.6 °F 29.9 °F 32.0 °F 87% 30.33 in 10.0 mi North 6.9 mph - N/A   Clear
9:35 PM 33.8 °F 30.8 °F 30.2 °F 87% 30.33 in 10.0 mi North 3.5 mph - N/A   Clear
9:55 PM 33.8 °F 28.6 °F 30.2 °F 87% 30.33 in 10.0 mi North 5.8 mph - N/A   Clear
10:15 PM 33.8 °F 28.6 °F 30.2 °F 87% 30.33 in 10.0 mi North 5.8 mph - N/A   Clear
10:35 PM 33.8 °F 30.8 °F 30.2 °F 87% 30.33 in 10.0 mi NNW 3.5 mph - N/A   Clear
10:55 PM 33.8 °F 29.6 °F 30.2 °F 87% 30.33 in 10.0 mi NNW 4.6 mph - N/A   Clear
11:15 PM 33.8 °F - 30.2 °F 87% 30.33 in 10.0 mi Calm Calm - N/A   Clear
11:35 PM 33.8 °F 30.8 °F 30.2 °F 87% 30.32 in 10.0 mi North 3.5 mph - N/A   Clear
11:55 PM 30.2 °F 23.4 °F 30.2 °F 100% 30.32 in 10.0 mi NNW 6.9 mph - N/A   Clear